Tracking 17138 objects as of 7-July-2015
HD Live streaming from Space Station

ASIASTAR

Track ASIASTAR now!
ASIASTAR is classified as:


NORAD ID: 26107
Int'l Code: 2000-016A
Perigee: 35,775.8 km
Apogee: 35,813.1 km
Inclination: 0.2 °
Period: 1,436.1 minutes
Semi major axis: 42165 km
RCS: 19.9526 m2 (large)
Launch date: March 21, 2000
Source: United States (US)

Africa, Middle East, Asia, Latin America and Caribbean. Services to underserved emerging markets; low-cost portable receivers.
Your satellite tracking list
Your tracking list is empty





NASA's NSSDC Master Catalog

Two Line Element Set (TLE):
1 26107U 00016A   15187.84574624 -.00000345  00000-0  00000+0 0  9997
2 26107 000.2236 069.6243 0004427 042.2564 222.0783 01.00269188 56056

Source of the keplerian elements: AFSPC

N2YO: 404